Satellite: NOAA-17
Catalog number: 27453
Epoch time:      11327.71283847
Element set:    0496
Inclination:      098.3624 deg
RA of node:       359.9519 deg
Eccentricity:    0.0012477
Arg of perigee:   045.4205 deg
Mean anomaly:     314.7997 deg
Mean motion:   14.24353740 rev/day
Decay rate:       3.47e-06 rev/day^2
Epoch rev:           48936
Checksum:              343

Satellite: NOAA-18
Catalog number: 28654
Epoch time:      11327.73360525
Element set:    0974
Inclination:      099.0179 deg
RA of node:       279.4331 deg
Eccentricity:    0.0014679
Arg of perigee:   018.5828 deg
Mean anomaly:     341.5883 deg
Mean motion:   14.11557082 rev/day
Decay rate:       1.97e-06 rev/day^2
Epoch rev:           33543
Checksum:              333

Satellite: NOAA-19
Catalog number: 33591
Epoch time:      11327.69527595
Element set:    0163
Inclination:      098.8429 deg
RA of node:       265.2785 deg
Eccentricity:    0.0013311
Arg of perigee:   244.7929 deg
Mean anomaly:     115.1866 deg
Mean motion:   14.11247222 rev/day
Decay rate:       1.52e-06 rev/day^2
Epoch rev:           14388
Checksum:              320

/EX
SB KEPS @ AMSAT  $ORB11328.M
Orbital Elements  11328.MISC

HR AMSAT ORBITAL ELEMENTS FOR MANNED AND MISCELLANEOUS SATELLITES
FROM WA5QGD FORT WORTH,TX November 24, 2011
Send Subscribe/unsubscribe to KEPS at http://www.amsat.org/mailman/listinfo/kep
BID: ORB11328.M
TO ALL RADIO AMATEURS BT

Satellite: HUBBLE
Catalog number: 20580
Epoch time:      11326.31132196
Element set:     892
Inclination:      028.4700 deg
RA of node:       063.2810 deg
Eccentricity:    0.0003036
Arg of perigee:   006.5468 deg
Mean anomaly:     353.5081 deg
Mean motion:   15.01859302 rev/day
Decay rate:      3.790e-05 rev/day^2
Epoch rev:           98344
Checksum:              269

Satellite: ISS
Catalog number: 25544
Epoch time:      11328.84914510
Element set:     497
Inclination:      051.6422 deg
RA of node:       072.2593 deg
Eccentricity:    0.0030676
Arg of perigee:   087.7073 deg
Mean anomaly:     006.3431 deg
Mean motion:   15.58656604 rev/day
Decay rate:     6.2142e-04 rev/day^2
Epoch rev:           74599
Checksum:              308

Satellite: CO-58
Catalog number: 28895
Epoch time:      11327.66127578
Element set:    0032
Inclination:      097.9429 deg
RA of node:       197.6776 deg
Eccentricity:    0.0018847
Arg of perigee:   080.0603 deg
Mean anomaly:     280.2722 deg
Mean motion:   14.60328836 rev/day
Decay rate:      1.346e-05 rev/day^2
Epoch rev:           32351
Checksum:              335

Satellite: FALCON
Catalog number: 30776
Epoch time:      11327.78574134
Element set:     222
Inclination:      035.4319 deg
RA of node:       095.9887 deg
Eccentricity:    0.0002401
Arg of perigee:   012.6025 deg
Mean anomaly:     347.4752 deg
Mean motion:   15.05815440 rev/day
Decay rate:      8.100e-05 rev/day^2
Epoch rev:           25910
Checksum:              275

Satellite: MAST
Catalog number: 31126
Epoch time:      11327.98691437
Element set:    0321
Inclination:      097.8854 deg
RA of node:       346.0978 deg
Eccentricity:    0.0095004
Arg of perigee:   033.5700 deg
Mean anomaly:     327.1467 deg
Mean motion:   14.53914240 rev/day
Decay rate:      1.105e-05 rev/day^2
Epoch rev:           24430
Checksum:              285

Satellite: CAPE1
Catalog number: 31130
Epoch time:      11327.50031586
Element set:    0329
Inclination:      097.8902 deg
RA of node:       342.1940 deg
Eccentricity:    0.0102805
Arg of perigee:   046.7728 deg
Mean anomaly:     314.2009 deg
Mean motion:   14.52606554 rev/day
Decay rate:      1.454e-05 rev/day^2
Epoch rev:           24376
Checksum:              274

Satellite: COMPASS
Catalog number: 32787
Epoch time:      11327.68583620
Element set:    0154
Inclination:      097.8321 deg
RA of node:       028.4081 deg
Eccentricity:    0.0015925
Arg of perigee:   019.9189 deg
Mean anomaly:     340.2667 deg
Mean motion:   14.83080973 rev/day
Decay rate:      4.536e-05 rev/day^2
Epoch rev:           19319
Checksum:              321

Satellite: AAUSAT2
Catalog number: 32788
Epoch time:      11327.83016736
Element set:     143
Inclination:      097.8323 deg
RA of node:       028.8292 deg
Eccentricity:    0.0015373
Arg of perigee:   020.7422 deg
Mean anomaly:     339.4394 deg
Mean motion:   14.83321501 rev/day
Decay rate:      4.669e-05 rev/day^2
Epoch rev:           19323
Checksum:              299

Satellite: DO-64
Catalog number: 32789
Epoch time:      11327.70795450
Element set:    0159
Inclination:      097.8410 deg
RA of node:       030.0577 deg
Eccentricity:    0.0015375
Arg of perigee:   017.3341 deg
Mean anomaly:     342.8407 deg
Mean motion:   14.84191090 rev/day
Decay rate:      7.080e-05 rev/day^2
Epoch rev:           19323
Checksum:              303

Satellite: CO-66
Catalog number: 32791
Epoch time:      11327.80705193
Element set:    0148
Inclination:      097.8337 deg
RA of node:       028.4067 deg
Eccentricity:    0.0016375
Arg of perigee:   018.7842 deg
Mean anomaly:     341.3989 deg
Mean motion:   14.82660434 rev/day
Decay rate:      3.748e-05 rev/day^2
Epoch rev:           19315
Checksum:              335

